Volver al catálogo

YAOGAN-30 X

ActivoMilitarVLEO
NORAD 48423·PAYLOAD·🇨🇳 China

Lanzado May 6, 2021 desde Xichang Satellite Launch Center

Loading…

Próximos Pases (próximas 24 horas)

TLE

ActualizadoSource: Space-Track

Época: Sep 14, 2026, 23:30 UTC

1 48423U 21039A   26257.97984751  .00002209  00000-0  16284-3 0  9995
2 48423  34.9965 204.2125 0003161 111.5422 248.5624 15.03037602293060

Sigue YAOGAN-30 X en tiempo real con AllMySat

Download on the App Store